CW9861 Weather Reports


time (UTC)temp
C
wind
direction
speed
KPH
gust
KPH
rain 1hr
cm
rain 24hr
cm
rain mn
cm
humidity
%
barometer
mb
20260502193959 11 224 6.4 19.3 0.00 0.00 0.00 49 1015.2
20260502193459 10 236 8.0 19.3 0.00 0.00 0.00 48 1015.2
20260502192959 11 227 11.3 17.7 0.00 0.00 0.00 46 1015.2
20260502192459 9 245 4.8 14.5 0.00 0.00 0.00 51 1015.2
20260502191959 9 218 6.4 14.5 0.00 0.00 0.00 49 1015.3
20260502191459 10 280 4.8 14.5 0.00 0.00 0.00 50 1015.5
20260502190959 8 315 4.8 12.9 0.00 0.00 0.00 49 1015.4
20260502190459 8 232 4.8 12.9 0.00 0.00 0.00 50 1015.5
20260502190001 9 261 3.2 19.3 0.00 0.00 0.00 50 1015.6
20260502185459 10 276 6.4 19.3 0.00 0.00 0.00 48 1015.5
20260502184959 9 307 4.8 12.9 0.00 0.00 0.00 49 1015.7
20260502184459 8 276 3.2 16.1 0.00 0.00 0.00 51 1015.7
20260502183959 8 257 4.8 16.1 0.00 0.00 0.00 49 1015.7
20260502183459 9 276 4.8 12.9 0.00 0.00 0.00 47 1015.7
20260502182959 10 220 6.4 17.7 0.00 0.00 0.00 48 1015.8
20260502182459 8 330 3.2 17.7 0.00 0.00 0.00 47 1015.8
20260502181959 8 249 3.2 8.0 0.00 0.00 0.00 49 1015.9
20260502181458 8 228 3.2 12.9 0.00 0.00 0.00 49 1015.9
20260502180959 10 205 3.2 12.9 0.00 0.00 0.00 43 1015.9
20260502180459 8 329 4.8 12.9 0.00 0.00 0.00 47 1016.1
20260502163459 7 345 6.4 14.5 0.00 0.00 0.00 54 1017.0
20260502162958 7 271 4.8 17.7 0.00 0.00 0.00 53 1016.9
20260502162458 7 329 6.4 17.7 0.00 0.00 0.00 53 1016.9
20260502161959 7 271 6.4 14.5 0.00 0.00 0.00 51 1017.0
20260502161459 8 307 4.8 17.7 0.00 0.00 0.00 52 1016.9
20260502160959 7 301 8.0 17.7 0.00 0.00 0.00 52 1017.0
20260502160458 7 281 4.8 16.1 0.00 0.00 0.00 52 1017.0
20260502150458 5 307 6.4 16.1 0.00 0.00 0.00 57 1017.1
20260502130500 4 354 3.2 8.0 0.00 0.00 0.00 73 1017.4
20260502123459 0 291 3.2 6.4 0.00 0.00 0.00 89 1017.5
20260502122959 0 314 1.6 8.0 0.00 0.00 0.00 89 1017.6
20260502122458 0 320 3.2 8.0 0.00 0.00 0.00 89 1017.6
20260502121959 0 225 3.2 6.4 0.00 0.00 0.00 89 1017.6
20260502121458 0 326 3.2 6.4 0.00 0.00 0.00 89 1017.5
20260502120958 0 326 1.6 4.8 0.00 0.00 0.00 89 1017.5
20260502120459 -1 286 1.6 3.2 0.00 0.00 0.00 89 1017.5
20260502115459 -1 276 1.6 4.8 0.00 0.00 0.00 88 1017.5
20260502114958 -1 276 1.6 4.8 0.00 0.00 0.00 88 1017.5
20260502114500 -1 315 1.6 3.2 0.00 0.00 0.00 88 1017.5
20260502113958 -2 311 0.0 1.6 0.00 0.00 0.00 88 1017.5
20260502113458 -2 311 0.0 1.6 0.00 0.00 0.00 87 1017.4
20260502112959 -2 311 0.0 1.6 0.00 0.00 0.00 87 1017.4
20260502112458 -2 311 0.0 0.0 0.00 0.00 0.00 87 1017.3
20260502112000 -2 311 0.0 0.0 0.00 0.00 0.00 87 1017.3
20260502111458 -2 311 0.0 0.0 0.00 0.00 0.00 87 1017.3
20260502110958 -2 311 0.0 0.0 0.00 0.00 0.00 87 1017.3
20260502110500 -2 311 0.0 0.0 0.00 0.00 0.00 86 1017.3
20260502105959 -2 311 0.0 0.0 0.00 0.00 0.00 86 1017.1
20260502105459 -2 311 0.0 0.0 0.00 0.00 0.00 86 1017.1
20260502104959 -2 311 0.0 0.0 0.00 0.00 0.00 85 1017.1
20260502104458 -2 311 0.0 0.0 0.00 0.00 0.00 85 1017.1
20260502103958 -2 311 0.0 0.0 0.00 0.00 0.00 85 1017.1
20260502103458 -2 311 0.0 0.0 0.00 0.00 0.00 85 1017.1
20260502103000 -2 311 0.0 0.0 0.00 0.00 0.00 85 1017.1
20260502102458 -2 311 0.0 0.0 0.00 0.00 0.00 85 1017.1
20260502102000 -2 311 0.0 0.0 0.00 0.00 0.00 85 1017.2
20260502091458 -1 311 0.0 0.0 0.00 0.00 0.00 81 1016.8
20260502090959 -1 311 0.0 0.0 0.00 0.00 0.00 81 1016.8
20260502090459 -1 311 0.0 0.0 0.00 0.00 0.00 81 1016.7
20260502071457 0 311 0.0 0.0 0.00 0.00 0.00 77 1016.6
20260502070956 0 311 0.0 0.0 0.00 0.00 0.00 77 1016.7
20260502070456 0 311 0.0 0.0 0.00 0.00 0.00 77 1016.5
20260502065956 0 311 0.0 0.0 0.00 0.00 0.00 76 1016.5
20260502065457 0 311 0.0 0.0 0.00 0.00 0.00 76 1016.5
20260502064956 0 311 0.0 1.6 0.00 0.00 0.00 76 1016.5
20260502064456 0 311 0.0 1.6 0.00 0.00 0.00 76 1016.6
20260502063956 1 311 0.0 3.2 0.00 0.00 0.00 76 1016.7
20260502063457 1 311 0.0 3.2 0.00 0.00 0.00 76 1016.7
20260502062956 1 311 0.0 0.0 0.00 0.00 0.00 75 1016.7
20260502062456 1 311 0.0 0.0 0.00 0.00 0.00 75 1016.8
20260502061956 1 311 0.0 0.0 0.00 0.00 0.00 75 1016.7
20260502061457 1 311 0.0 0.0 0.00 0.00 0.00 74 1016.7
20260502060957 1 311 0.0 0.0 0.00 0.00 0.00 74 1016.6
20260502060456 1 311 0.0 0.0 0.00 0.00 0.00 74 1016.6
20260502055959 1 311 0.0 0.0 0.00 0.00 0.00 73 1016.8
20260502055457 1 311 0.0 0.0 0.00 0.00 0.00 73 1016.8
20260502054958 1 311 0.0 0.0 0.00 0.00 0.00 73 1016.8
20260502054458 1 311 0.0 0.0 0.00 0.00 0.00 73 1016.6
20260502053957 1 311 0.0 0.0 0.00 0.00 0.00 72 1016.6
20260502053458 1 311 0.0 0.0 0.00 0.00 0.00 72 1016.5
20260502052957 1 311 0.0 1.6 0.00 0.00 0.00 72 1016.6
20260502052459 1 311 0.0 3.2 0.00 0.00 0.00 72 1016.5
20260502051958 1 310 0.0 3.2 0.00 0.00 0.00 72 1016.5
20260502051458 1 286 0.0 1.6 0.00 0.00 0.00 71 1016.5
20260502050958 1 286 0.0 1.6 0.00 0.00 0.00 70 1016.5
20260502050457 1 286 0.0 1.6 0.00 0.00 0.00 70 1016.4
20260502045959 2 286 0.0 1.6 0.00 0.00 0.00 70 1016.5
20260502045456 2 286 0.0 1.6 0.00 0.00 0.00 70 1016.4
20260502044957 2 286 0.0 3.2 0.00 0.00 0.00 70 1016.5
20260502044457 2 290 0.0 3.2 0.00 0.00 0.00 70 1016.4
20260502043957 2 288 0.0 4.8 0.00 0.00 0.00 69 1016.4
20260502043456 2 310 1.6 4.8 0.00 0.00 0.00 69 1016.4
20260502042958 2 333 0.0 4.8 0.00 0.00 0.00 69 1016.3
20260502042457 2 332 1.6 6.4 0.00 0.00 0.00 69 1016.3
20260502041957 2 320 1.6 3.2 0.00 0.00 0.00 69 1016.2
20260502041456 2 312 0.0 3.2 0.00 0.00 0.00 68 1016.3
20260502040956 2 312 0.0 3.2 0.00 0.00 0.00 68 1016.3
20260502040457 2 318 0.0 3.2 0.00 0.00 0.00 67 1016.3
20260502035957 2 297 1.6 3.2 0.00 0.00 0.00 67 1016.4
20260502035457 2 309 0.0 3.2 0.00 0.00 0.00 67 1016.3
20260502034958 3 310 0.0 4.8 0.00 0.00 0.00 66 1016.2
20260502034457 3 310 1.6 4.8 0.00 0.00 0.00 66 1016.2
20260502033957 3 297 0.0 4.8 0.00 0.00 0.00 66 1016.3
20260502033457 3 306 1.6 4.8 0.00 0.00 0.00 66 1016.2
20260502032957 3 315 1.6 6.4 0.00 0.00 0.00 65 1016.3
20260502032457 3 299 1.6 6.4 0.00 0.00 0.00 65 1016.3
20260502031957 3 297 0.0 3.2 0.00 0.00 0.00 65 1016.2
20260502031457 3 284 1.6 8.0 0.00 0.00 0.00 64 1016.3
20260502030957 3 329 3.2 4.8 0.00 0.00 0.00 64 1016.3
20260502030457 3 289 1.6 4.8 0.00 0.00 0.00 64 1016.3
20260502025959 3 286 1.6 6.4 0.00 0.00 0.00 64 1016.2
20260502025459 3 318 3.2 6.4 0.00 0.00 0.00 63 1016.2
20260502024958 3 316 1.6 4.8 0.00 0.00 0.00 63 1016.0
20260502024459 3 291 3.2 6.4 0.00 0.00 0.00 62 1016.2
20260502020458 4 266 1.6 8.0 0.00 0.00 0.00 59 1016.0
20260502015959 4 262 4.8 8.0 0.00 0.00 0.00 59 1015.9
20260502015456 4 310 4.8 9.7 0.00 0.00 0.00 58 1015.8
20260502014957 4 336 4.8 11.3 0.00 0.00 0.00 58 1015.8
20260502014458 4 323 1.6 14.5 0.00 0.00 0.00 57 1015.7
20260502013957 5 311 3.2 14.5 0.00 0.00 0.00 57 1015.7
20260502013457 5 313 6.4 14.5 0.00 0.00 0.00 57 1015.7
20260502012957 5 2 4.8 12.9 0.00 0.00 0.00 58 1015.7
20260502012458 5 322 3.2 11.3 0.00 0.00 0.00 59 1015.6
20260502011957 5 325 1.6 3.2 0.00 0.00 0.00 60 1015.5
20260502011457 5 321 0.0 4.8 0.00 0.00 0.00 60 1015.4
20260502010957 5 321 0.0 4.8 0.00 0.00 0.00 59 1015.4
20260502010457 5 322 1.6 3.2 0.00 0.00 0.00 59 1015.5
20260502010000 5 322 0.0 4.8 0.00 0.00 0.00 59 1015.4
20260502005458 5 322 0.0 4.8 0.00 0.00 0.00 59 1015.3
20260502004959 5 360 1.6 9.7 0.00 0.00 0.00 58 1015.3
20260502004458 5 327 1.6 9.7 0.00 0.00 0.00 57 1015.2
20260502003958 5 320 1.6 8.0 0.00 0.00 0.00 57 1015.1
20260502003458 5 317 1.6 8.0 0.00 0.00 0.00 57 1015.1
20260502002959 5 313 4.8 8.0 0.00 0.00 0.00 56 1015.0
20260502002459 5 314 4.8 12.9 0.00 0.00 0.00 56 1015.0
20260502001958 5 328 3.2 12.9 0.00 0.00 0.00 56 1014.9
20260502001458 5 311 3.2 14.5 0.00 0.00 0.00 55 1014.9
20260502000958 5 337 6.4 19.3 0.00 0.00 0.00 55 1014.9
20260502000458 6 316 4.8 19.3 0.00 0.00 0.00 55 1014.9
20260501235958 6 256 4.8 11.3 0.00 0.00 0.00 54 1014.8
20260501235457 6 301 4.8 12.9 0.00 0.00 0.00 53 1014.7
20260501234957 6 280 4.8 9.7 0.00 0.00 0.00 54 1014.6
20260501234457 6 261 1.6 8.0 0.00 0.00 0.00 54 1014.6
20260501233957 6 314 4.8 9.7 0.00 0.00 0.00 53 1014.6
20260501233457 6 324 4.8 11.3 0.00 0.00 0.00 52 1014.6
20260501232957 6 304 4.8 14.5 0.00 0.00 0.00 53 1014.6
20260501232456 6 22 6.4 14.5 0.00 0.00 0.00 54 1014.5
20260501231957 6 252 6.4 14.5 0.00 0.00 0.00 54 1014.5
20260501231458 6 280 6.4 16.1 0.00 0.00 0.00 54 1014.5
20260501230957 6 340 6.4 17.7 0.00 0.00 0.00 53 1014.4
20260501230458 7 271 9.7 17.7 0.00 0.00 0.00 53 1014.4
20260501225959 7 240 4.8 11.3 0.00 0.00 0.00 53 1014.3
20260501225458 7 311 3.2 11.3 0.00 0.00 0.00 52 1014.2
20260501224959 7 290 4.8 16.1 0.00 0.00 0.00 51 1014.2
20260501224458 7 344 6.4 17.7 0.00 0.00 0.00 51 1014.2
20260501223959 7 249 4.8 12.9 0.00 0.00 0.00 52 1014.3
20260501223458 7 259 4.8 9.7 0.00 0.00 0.00 50 1014.2
20260501222959 7 313 3.2 11.3 0.00 0.00 0.00 53 1014.2
20260501222458 7 315 3.2 14.5 0.00 0.00 0.00 53 1014.2
20260501214957 7 282 6.4 17.7 0.00 0.00 0.00 53 1014.0
20260501214457 7 302 4.8 19.3 0.00 0.00 0.00 54 1014.0
20260501213958 7 333 6.4 19.3 0.00 0.00 0.00 53 1013.9
20260501213457 7 297 4.8 8.0 0.00 0.00 0.00 53 1014.0
20260501212957 7 293 3.2 9.7 0.00 0.00 0.00 55 1013.8
20260501212456 7 309 4.8 9.7 0.00 0.00 0.00 54 1013.8
20260501211957 7 302 3.2 8.0 0.00 0.00 0.00 54 1013.8
20260501211458 7 331 4.8 9.7 0.00 0.00 0.00 53 1013.7
20260501210957 7 243 3.2 11.3 0.00 0.00 0.00 56 1013.7
20260501210457 7 317 1.6 14.5 0.00 0.00 0.00 56 1013.7
20260501210000 7 259 4.8 14.5 0.00 0.00 0.00 55 1013.8
20260501205458 7 307 3.2 9.7 0.00 0.00 0.00 57 1013.8
20260501204959 7 343 3.2 9.7 0.00 0.00 0.00 55 1013.8
20260501204458 7 27 1.6 8.0 0.00 0.00 0.00 57 1013.8
20260501203958 7 357 4.8 9.7 0.00 0.00 0.00 54 1013.8
20260501203458 7 271 4.8 9.7 0.00 0.00 0.00 56 1013.7
20260501202958 7 276 3.2 9.7 0.00 0.00 0.00 55 1013.7
20260501202458 7 305 3.2 12.9 0.00 0.00 0.00 55 1013.8
20260501201958 7 322 3.2 17.7 0.00 0.00 0.00 60 1013.8
20260501194458 7 307 3.2 14.5 0.00 0.00 0.00 59 1013.8